Regional Weather Roundup
Issued by NWS

Home | Current Version | Previous Version | Graphics & Text | Print | Product List | Glossary On
Versions: 1 2 3 4 5 6 7 8 9 10 11 12 13 14 15 16 17 18 19 20 21 22 23 24 25 26 27 28 29 30 31 32 33 34 35 36 37 38 39 40 41 42 43 44 45 46 47 48 49 50
000
ASUS45 KSLC 271810
RWRUT

UTAH REGIONAL WEATHER ROUNDUP
NATIONAL WEATHER SERVICE SALT LAKE CITY UT
1200 PM MDT MON APR 27 2015

UTZ001>011-023>025-271900-

NORTHERN UTAH

CITY           SKY/WX    TMP DP  RH WIND       PRES   REMARKS
BRIGHAM CITY   SUNNY     55  32  41 CALM      30.25F
HILL AFB       PTSUNNY   53  37  53 VRB3      30.25F
LOGAN          SUNNY     51  37  58 VRB3      30.26F
OGDEN          CLOUDY    55  36  48 VRB3      30.24F
PROVO AIRPORT  MOSUNNY   52  36  54 W7        30.25S
SALT LAKE CITY MOSUNNY   54  37  52 NW12      30.25S
VERNAL         CLOUDY    55  34  45 NE22G28   30.19F
WENDOVER       SUNNY     55  19  24 NE10      30.29S
HEBER CITY     CLOUDY    46  32  57 NE5       30.25S
WEST JORDAN    SUNNY     54  39  58 NW12      30.26S

$$

UTZ012>022-026-027-271900-

SOUTHERN/CENTRAL UTAH

CITY           SKY/WX    TMP DP  RH WIND       PRES   REMARKS
BLANDING       MOSUNNY   60  36  40 E8G20     30.16S
BRYCE CANYON   SUNNY     50  30  46 NE17      30.20S
CEDAR CITY     SUNNY     53  32  44 NE13G21   30.20S
DELTA          MOSUNNY   53  32  44 N8        30.25S
HANKSVILLE     SUNNY     63  32  31 N8G16     30.14S
MILFORD        SUNNY     55  27  34 N21G28    30.23S
MOAB/CYNLANDS  SUNNY     62  40  44 E16       30.10S
PRICE          NOT AVBL
ST GEORGE      PTCLDY    64  28  25 CALM      30.12F
KANAB          SUNNY     61  32  33 CALM      30.15S

$$

REGIONAL REPORTS     COLORADO/ARIZONA

CITY           SKY/WX    TMP DP  RH WIND       PRES   REMARKS
CRAIG, CO      MOSUNNY   52  36  54 VRB3      30.19S
GRAND JUNCTION MOSUNNY   58  39  49 E7        30.12S
RIFLE          SUNNY     56  35  45 MISG      30.13F
MONTROSE       MOSUNNY   53  41  63 W9        30.15F
CORTEZ         PTSUNNY   59  36  42 VRB3      30.08S
PAGE, AZ       NOT AVBL
GRAND CANYON   SUNNY     54  31  41 E12G20    30.15R
KINGMAN        SUNNY     66  27  23 N13G21    30.07F
FLAGSTAFF      SUNNY     51  33  50 NE16G28   30.11R

$$

REGIONAL REPORTS    NEVADA/IDAHO/WYOMING

CITY           SKY/WX    TMP DP  RH WIND       PRES   REMARKS
LAS VEGAS, NV  MOSUNNY   71  20  14 NW8       30.07R
ELY            SUNNY     50  19  29 NE9       30.28S
ELKO           SUNNY     52  14  22 VRB5      30.29F
POCATELLO, ID  MOSUNNY   53  32  44 NE12      30.32F
BURLEY         SUNNY     53  25  33 NW5       30.31S
EVANSTON, WY   CLOUDY    42  34  73 N7        30.28S
ROCK SPRINGS   CLOUDY    43  35  73 NE12      30.28F
KEMMERER       CLOUDY    45  34  65 SE5       30.29R

$$



USA.gov is the U.S. government's official web portal to all federal, state and local government web resources and services.